ONEWEB-0052, 45156

Orbit data source: Space-Track

ONEWEB-0052, 45156 is a payload satellite owned by One Web (UK) in LEO that was launched on Thu, 06 Feb 2020 UTC via a SOYUZ-2-1B launch vehicle from the Tyuratam Missile And Space Complex (TTMTR). Payloads include a variety of satellites, spacecraft, and rockets equipped with specific instruments for various scientific and technological missions. These include communications satellites like Starlink; space stations such as the ISS; scientific satellites like the Hubble; Earth observation satellites from companies like Planet Labs, Umbra, and HawkEye 360; GPS; miniature CubeSats for education and research; and military/defense satellites.

Loading next visibility...
ONEWEB-0052 details
Identifier
45156, 2020-008AB
Orbit
LEO
Last TLE update19 hours ago
Origin
Flag of UKOne Web (UK)
ManufacturerOne Web
MissionOperational Commercial Communications
Bus & MotorARROW, Unknown motor
Mass148 kg wet, ~140 kg dry
Launch date (UTC)
2020-02-06 (5 years ago)
Launch vehicle
SOYUZ-2-1B
Launch site
Tyuratam Missile And Space Complex (TTMTR)
Object type
Payload
Rocket body
Debris
Shape & HBRTrap Box + 2 Pan, 5 m
Radar Cross Section2.957 m², Large (>1 m²)

Expand to show TLE details & history

TLE from 19 hours ago
0 ONEWEB-0052
1 45156U 20008AB  24360.66938146 -.00000545  00000-0 -15976-2 0  9995
2 45156  87.8901 143.5021 0001983  89.9595 270.1760 13.10373737238177
Epoch: 2024-12-25T16:03Z
Definitive object data (Epoch: 2024-12-25T16:03:54.558Z)
Latitude0.00004°
Longitude167.86497°
Altitude1,224.597 km
Speed7.242 km/s
True Right ascension09h 34m 00s
True Declination0° 00' 00"
Sunlit
Object was in full shadow at TLE epoch
Visualization TLE readout
Latitude37.27536°
Longitude169.31065°
Altitude1,225.889 km
Speed7.245 km/s
Apparent Right ascension08h 33m 53s
Apparent Declination22° 48' 33"
Sunlit
Object is in full shadow
Visualization observer readout
Local Sidereal Time09:56:00
Azimuth231.557° WSW
Elevation65.625°
Doppler factor1
Orbital elements
Apogee altitude1,220.34 km
Perigee altitude1,217.327 km
Semi-major axis7,596.97 km
Eccentricity0.0001983
Inclination87.8901°
RAAN143.5021°
Arg. of periapsis89.9595°
True anomaly270.15328°
Mean anomaly270.176°
Eccentric anomaly270.16464°
Mean motion3.2778 °/min
BSTAR-0.0015976
Orbital period109.83 mins
Loading maneuver chart data...
Loading historical data...
Loading historical data...
Loading historical data...
Loading historical data...
Loading historical data...
Loading historical data...
Loading historical data...

ONEWEB-0052 Visibility forecast

Observer location: undefined°, undefined

Span
Click to sort rows by Start time (UTC) header in descending order
Start Az.
Max El. time (UTC)
Max El. Az.
Max El.
End time (UTC)
End Az.
8 mins2024-12-26 10:34:47.604Z230.704° WSW2024-12-26 10:35:47.604Z281.414° WNW43.354°2024-12-26 10:42:47.604Z356.121° N
6 mins2024-12-26 20:12:47.604Z52.185° ENE2024-12-26 20:14:47.604Z70.352° E15.319°2024-12-26 20:18:47.604Z104.902° ESE
13 mins2024-12-26 21:59:47.604Z358.38° N2024-12-26 22:05:47.604Z304.636° NW44.917°2024-12-26 22:12:47.604Z183.445° SSW
5 mins2024-12-26 23:52:47.604Z306.299° NW2024-12-26 23:54:47.604Z288.783° WNW13.812°2024-12-26 23:57:47.604Z263.521° W
7 mins2024-12-27 08:32:47.604Z102.458° ESE2024-12-27 08:35:47.604Z74.773° E17.439°2024-12-27 08:39:47.604Z38.758° NE
13 mins2024-12-27 10:18:47.604Z185.602° SSW2024-12-27 10:24:47.604Z249.371° W44.222°2024-12-27 10:31:47.604Z357.366° N
|